^^
Station Historical Data
Daily Summary for December 7, 2017 Units:  English    Metric   Both
« Previous Day
Next Day »
Daily Weekly Monthly Yearly Custom
  High: Low: Average:
Temperature: 100.8 °F 73.9 °F 83 °F
Dew Point: 51.6 °F 40.8 °F 46.8 °F
Humidity: 38% 14% 30%
Wind Speed: 16.1mph 0.0mph 3.1mph
Wind Gust: 21.0mph - -
Wind- - SE
Pressure: 29.78 in 29.67 in -
Precipitation: 0.00 in    
Historical Graphs
 
 
Tabular Data for December 7, 2017
Time Temperature Dew Point Pressure Wind Wind Speed Wind Gust Humidity Rainfall Rate (Hourly) solar Conditions
00:03 82.8 °F 49.1 °F 29.73 in SW 4.9 mph 6.0 mph 31% 0.00 in 0.0 W/m2
00:25 82.0 °F 48.4 °F 29.73 in SW 2.9 mph 5.0 mph 31% 0.00 in 0.0 W/m2
00:32 81.7 °F 48.9 °F 29.73 in SW 4.0 mph 5.0 mph 32% 0.00 in 0.0 W/m2
00:41 81.1 °F 48.6 °F 29.73 in Calm     32% 0.00 in 0.0 W/m2
00:47 81.0 °F 48.4 °F 29.73 in Calm     32% 0.00 in 0.0 W/m2
00:52 80.8 °F 48.2 °F 29.73 in Calm     32% 0.00 in 0.0 W/m2
00:57 80.4 °F 47.8 °F 29.72 in Calm     32% 0.00 in 0.0 W/m2
01:02 80.1 °F 48.4 °F 29.72 in Calm     33% 0.00 in 0.0 W/m2
01:07 79.9 °F 48.2 °F 29.72 in Calm     33% 0.00 in 0.0 W/m2
01:13 79.9 °F 48.2 °F 29.71 in Calm     33% 0.00 in 0.0 W/m2
01:18 79.5 °F 47.8 °F 29.71 in Calm     33% 0.00 in 0.0 W/m2
01:23 79.5 °F 47.8 °F 29.71 in Calm     33% 0.00 in 0.0 W/m2
01:28 79.3 °F 47.7 °F 29.71 in Calm     33% 0.00 in 0.0 W/m2
01:33 78.8 °F 48.0 °F 29.71 in Calm     34% 0.00 in 0.0 W/m2
01:39 78.4 °F 47.7 °F 29.72 in Calm     34% 0.00 in 0.0 W/m2
01:45 78.4 °F 47.7 °F 29.71 in Calm     34% 0.00 in 0.0 W/m2
01:50 78.4 °F 47.7 °F 29.71 in Calm     34% 0.00 in 0.0 W/m2
01:55 78.4 °F 47.7 °F 29.71 in Calm     34% 0.00 in 0.0 W/m2
02:00 78.4 °F 47.7 °F 29.71 in Calm     34% 0.00 in 0.0 W/m2
02:05 78.4 °F 47.7 °F 29.71 in Calm     34% 0.00 in 0.0 W/m2
02:10 78.3 °F 47.7 °F 29.70 in Calm     34% 0.00 in 0.0 W/m2
02:16 78.1 °F 47.5 °F 29.70 in Calm     34% 0.00 in 0.0 W/m2
02:21 77.9 °F 48.0 °F 29.70 in Calm     35% 0.00 in 0.0 W/m2
02:26 77.7 °F 47.8 °F 29.70 in Calm     35% 0.00 in 0.0 W/m2
02:31 77.5 °F 47.7 °F 29.70 in Calm     35% 0.00 in 0.0 W/m2
02:37 77.4 °F 47.5 °F 29.70 in Calm     35% 0.00 in 0.0 W/m2
02:48 77.2 °F 48.2 °F 29.70 in Calm     36% 0.00 in 0.0 W/m2
02:53 77.0 °F 48.0 °F 29.70 in Calm     36% 0.00 in 0.0 W/m2
02:59 77.0 °F 48.0 °F 29.70 in Calm     36% 0.00 in 0.0 W/m2
03:04 76.8 °F 47.8 °F 29.70 in Calm     36% 0.00 in 0.0 W/m2
03:09 76.6 °F 46.9 °F 29.70 in Calm     35% 0.00 in 0.0 W/m2
03:14 76.3 °F 47.3 °F 29.70 in Calm     36% 0.00 in 0.0 W/m2
03:19 76.3 °F 47.3 °F 29.70 in Calm     36% 0.00 in 0.0 W/m2
03:24 76.1 °F 47.1 °F 29.71 in Calm     36% 0.00 in 0.0 W/m2
03:30 75.9 °F 47.8 °F 29.71 in Calm     37% 0.00 in 0.0 W/m2
03:35 75.9 °F 47.1 °F 29.70 in Calm     36% 0.00 in 0.0 W/m2
03:41 75.6 °F 46.0 °F 29.71 in Calm     35% 0.00 in 0.0 W/m2
03:46 75.4 °F 46.6 °F 29.71 in Calm     36% 0.00 in 0.0 W/m2
03:51 75.0 °F 46.2 °F 29.71 in Calm     36% 0.00 in 0.0 W/m2
03:56 74.8 °F 46.0 °F 29.71 in Calm     36% 0.00 in 0.0 W/m2
04:01 74.7 °F 46.6 °F 29.71 in Calm     37% 0.00 in 0.0 W/m2
04:06 74.7 °F 46.6 °F 29.71 in Calm     37% 0.00 in 0.0 W/m2
04:12 74.8 °F 46.8 °F 29.71 in Calm     37% 0.00 in 0.0 W/m2
04:17 74.8 °F 46.0 °F 29.71 in Calm     36% 0.00 in 0.0 W/m2
04:22 74.5 °F 45.9 °F 29.72 in Calm     36% 0.00 in 0.0 W/m2
04:33 73.9 °F 46.8 °F 29.72 in Calm     38% 0.00 in 0.0 W/m2
04:38 74.1 °F 46.9 °F 29.72 in Calm     38% 0.00 in 0.0 W/m2
04:44 74.3 °F 46.4 °F 29.72 in Calm     37% 0.00 in 0.0 W/m2
04:49 74.5 °F 46.6 °F 29.72 in Calm     37% 0.00 in 0.0 W/m2
04:54 74.5 °F 45.9 °F 29.72 in Calm     36% 0.00 in 0.0 W/m2
04:59 74.5 °F 45.0 °F 29.72 in Calm     35% 0.00 in 0.0 W/m2
05:09 74.8 °F 45.3 °F 29.72 in Calm     35% 0.00 in 0.0 W/m2
05:19 75.4 °F 45.9 °F 29.73 in Calm     35% 0.00 in 0.0 W/m2
05:35 75.9 °F 44.8 °F 29.74 in Calm     33% 0.00 in 0.0 W/m2
05:46 77.7 °F 45.5 °F 29.74 in Calm     32% 0.00 in 0.0 W/m2
05:51 78.6 °F 45.5 °F 29.74 in Calm     31% 0.00 in 5.0 W/m2
05:56 79.0 °F 45.7 °F 29.74 in Calm     31% 0.00 in 7.0 W/m2
06:01 79.2 °F 45.9 °F 29.74 in Calm     31% 0.00 in 9.0 W/m2
06:07 79.3 °F 46.0 °F 29.75 in Calm     31% 0.00 in 12.0 W/m2
06:48 80.1 °F 46.8 °F 29.76 in Calm     31% 0.00 in 125.0 W/m2
06:53 80.4 °F 46.9 °F 29.76 in Calm     31% 0.00 in 142.0 W/m2
07:03 82.4 °F 50.4 °F 29.76 in NE 12.1 mph 12.1 mph 33% 0.00 in 185.0 W/m2
07:08 83.7 °F 51.4 °F 29.76 in NE 8.9 mph 13.0 mph 33% 0.00 in 204.0 W/m2
07:13 84.4 °F 51.3 °F 29.76 in NNE 14.1 mph 18.0 mph 32% 0.00 in 220.0 W/m2
07:18 84.7 °F 51.6 °F 29.76 in NNE 12.1 mph 15.0 mph 32% 0.00 in 237.0 W/m2
07:24 85.1 °F 51.1 °F 29.76 in NNE 8.1 mph 12.0 mph 31% 0.00 in 253.0 W/m2
07:35 85.8 °F 50.7 °F 29.77 in NNE 4.9 mph 12.0 mph 30% 0.00 in 281.0 W/m2
07:42 86.0 °F 50.0 °F 29.77 in NNE 11.0 mph 16.0 mph 29% 0.00 in 302.0 W/m2
08:03 87.4 °F 49.3 °F 29.77 in NNE 10.1 mph 14.0 mph 27% 0.00 in 385.0 W/m2
08:07 87.4 °F 49.3 °F 29.77 in NNE 10.1 mph 14.0 mph 27% 0.00 in 385.0 W/m2
08:18 87.8 °F 48.6 °F 29.77 in NE 8.9 mph 18.0 mph 26% 0.00 in 418.0 W/m2
08:32 87.6 °F 49.5 °F 29.77 in NE 12.1 mph 15.0 mph 27% 0.00 in 468.0 W/m2
08:43 88.2 °F 50.0 °F 29.78 in NNE 12.1 mph 14.0 mph 27% 0.00 in 499.0 W/m2
08:51 88.5 °F 50.4 °F 29.77 in NNE 13.0 mph 18.0 mph 27% 0.00 in 531.0 W/m2
09:05 89.6 °F 50.2 °F 29.77 in NE 15.0 mph 15.0 mph 26% 0.00 in 575.0 W/m2
09:12 89.8 °F 50.4 °F 29.77 in NNE 16.1 mph 20.0 mph 26% 0.00 in 592.0 W/m2
09:54 91.2 °F 48.2 °F 29.76 in NNE 15.0 mph 20.0 mph 23% 0.00 in 707.0 W/m2
10:09 92.3 °F 48.0 °F 29.76 in NE 10.1 mph 15.0 mph 22% 0.00 in 745.0 W/m2
10:24 92.7 °F 46.9 °F 29.76 in North 6.9 mph 20.0 mph 21% 0.00 in 780.0 W/m2
10:40 93.0 °F 46.0 °F 29.75 in NNE 12.1 mph 18.0 mph 20% 0.00 in 817.0 W/m2
11:10 94.6 °F 44.6 °F 29.75 in NNE 4.9 mph 18.0 mph 18% 0.00 in 875.0 W/m2
11:25 95.2 °F 41.9 °F 29.75 in NNW 4.9 mph 14.0 mph 16% 0.00 in 902.0 W/m2
11:41 96.3 °F 44.4 °F 29.74 in North 4.9 mph 16.0 mph 17% 0.00 in 918.0 W/m2
11:56 96.8 °F 41.5 °F 29.74 in NW 12.1 mph 15.0 mph 15% 0.00 in 935.0 W/m2
12:11 97.0 °F 41.7 °F 29.73 in Calm   17.0 mph 15% 0.00 in 946.0 W/m2
12:24 97.5 °F 42.1 °F 29.73 in North 8.9 mph 21.0 mph 15% 0.00 in 954.0 W/m2
12:40 98.1 °F 40.8 °F 29.72 in North 4.9 mph 5.0 mph 14% 0.00 in 960.0 W/m2
12:54 98.8 °F 41.4 °F 29.72 in North 4.9 mph 15.0 mph 14% 0.00 in 976.0 W/m2
13:16 98.1 °F 40.8 °F 29.71 in ENE 6.0 mph 11.0 mph 14% 0.00 in 132.0 W/m2
13:31 99.5 °F 41.9 °F 29.70 in ENE 2.9 mph 5.0 mph 14% 0.00 in 983.0 W/m2
13:43 99.9 °F 42.1 °F 29.70 in NNW 8.1 mph 15.0 mph 14% 0.00 in 981.0 W/m2
13:55 99.1 °F 43.3 °F 29.70 in North 0.9 mph 9.0 mph 15% 0.00 in 1042.0 W/m2
14:06 98.8 °F 43.2 °F 29.69 in NNW 4.9 mph 11.0 mph 15% 0.00 in 990.0 W/m2
14:20 100.8 °F 42.8 °F 29.68 in North 4.0 mph 14.0 mph 14% 0.00 in 949.0 W/m2
14:29 100.6 °F 42.8 °F 29.68 in East 4.0 mph 5.0 mph 14% 0.00 in 970.0 W/m2
14:37 100.0 °F 42.3 °F 29.67 in NE 0.9 mph 4.0 mph 14% 0.00 in 181.0 W/m2
Canyon Roadhouse, Fishriver Canyon, Namibia
Compliments of Weather Underground - 2 mb